GFSMA_sfc_30mbdewp_276.txt.gz
Dewpoint
64 64 63 63 63 63 61 60 60 60 61 62 62 62 62 62 62 60 58 58 58 59 61 62 63 65 66 68 68 68 69 68 68 67 66 66 65 65 64 64 64 64 63
62 62 63 62 62 62 63 63 63 63 63 62 61 62 63 63 62 61 60 59 60 60 61 62 63 64 66 66 68 68 68 68 68 67 67 66 66 65 65 64 64 64 63
61 61 60 60 60 61 62 62 63 63 63 62 61 62 62 61 60 59 60 60 59 60 60 61 61 62 63 65 65 67 68 68 68 68 67 67 66 66 65 64 64 64 64
53 54 54 56 58 58 58 58 59 60 60 61 62 62 61 61 61 61 61 61 60 60 60 60 61 61 62 62 63 64 65 66 68 68 68 68 67 66 66 65 65 64 64
49 50 50 52 52 51 52 51 52 56 58 57 56 55 58 59 60 60 61 61 61 61 61 61 61 61 61 61 62 63 64 64 65 66 67 68 68 67 67 66 65 65 65
44 43 44 45 44 44 43 45 48 49 51 48 45 46 50 51 52 56 59 59 58 60 60 61 61 60 60 60 60 61 63 64 64 64 65 65 66 67 67 67 66 66 65
40 40 38 39 39 40 41 41 41 40 41 43 40 36 38 44 49 57 53 52 55 51 53 51 52 51 51 50 56 56 52 56 62 62 62 63 63 65 65 66 66 66 66
38 37 38 37 38 36 39 39 40 36 35 41 41 36 30 31 46 34 44 43 43 39 37 34 38 38 39 46 40 45 52 53 54 54 55 57 59 60 62 64 64 65 66
37 38 38 39 38 37 37 38 39 38 35 37 42 38 32 30 34 35 34 37 35 37 34 34 34 35 36 40 43 46 49 50 48 49 49 51 56 56 58 60 61 63 64
37 38 39 40 40 39 40 38 40 39 39 37 38 36 40 39 34 35 33 31 35 34 35 35 35 38 37 39 41 41 48 45 43 42 42 46 50 53 53 54 57 59 61
37 37 39 39 39 39 41 41 41 41 39 38 37 36 36 35 35 34 31 32 34 34 34 35 38 36 36 37 38 39 43 41 41 44 46 45 51 51 50 52 54 56 58
34 37 38 39 39 39 40 40 40 40 39 38 38 36 36 35 35 35 34 34 34 33 34 36 35 35 36 37 36 40 39 42 41 43 41 43 45 44 46 49 49 52 55
34 37 37 38 38 40 40 39 39 38 38 38 38 36 36 36 36 35 35 34 33 34 34 34 34 35 35 35 36 37 39 39 39 40 42 41 42 45 46 47 48 51 51
34 37 37 38 38 38 37 37 36 36 37 37 37 37 36 35 35 35 35 35 33 32 32 32 33 34 34 34 36 38 37 37 38 37 38 40 42 44 47 47 49 48 48
34 36 37 37 37 36 35 35 35 35 36 36 36 36 35 35 35 35 35 35 35 32 32 31 32 33 34 35 35 36 36 36 37 36 38 39 42 40 43 41 41 43 44
35 35 36 36 35 34 34 34 33 34 34 34 33 34 33 33 33 33 33 33 33 34 31 32 31 33 34 34 35 35 35 37 36 36 35 38 36 37 37 38 43 43 41
34 34 34 34 32 33 34 33 32 33 33 33 33 33 32 32 32 32 32 32 31 32 32 31 31 32 34 34 34 35 36 35 35 35 36 36 35 35 36 39 38 38 38
34 33 34 33 32 32 32 32 32 32 32 32 32 31 31 31 31 31 30 30 30 31 31 31 31 31 32 33 34 35 35 34 35 34 36 36 36 36 36 35 36 38 42
34 32 33 32 32 32 31 31 32 32 32 32 32 31 31 30 30 30 30 29 29 29 30 31 31 31 32 32 32 33 34 35 34 35 35 35 35 36 37 36 37 40 37
31 31 32 32 31 30 30 30 31 31 31 31 32 32 31 30 30 30 28 29 29 30 29 30 30 30 30 30 31 31 31 33 34 34 35 36 37 37 38 37 36 36 37
31 31 31 31 30 27 27 29 31 30 30 29 30 30 30 29 30 30 28 29 29 29 29 29 29 29 29 29 29 31 31 31 32 34 36 36 36 36 37 37 36 36 38
31 30 30 30 29 25 29 29 30 29 28 28 28 29 28 27 29 30 29 29 30 28 28 29 29 28 28 29 31 32 31 30 29 34 35 34 36 36 36 37 36 36 37
31 29 30 29 29 27 28 28 28 27 27 28 28 28 27 27 29 27 28 28 29 29 29 28 28 28 29 31 32 32 32 31 31 33 34 33 36 36 37 36 37 38 39
30 29 28 29 28 26 28 28 28 27 26 27 28 28 28 27 27 26 26 27 27 28 28 28 29 30 30 31 32 34 33 33 33 32 34 31 36 35 37 38 38 40 42
28 27 26 27 28 28 27 28 28 26 25 26 27 28 27 26 26 26 25 25 25 25 26 28 29 30 30 31 31 32 31 31 29 30 33 34 34 33 36 37 40 41 42
24 23 24 27 25 28 26 26 26 25 25 25 27 27 27 26 26 26 25 24 24 25 27 27 27 28 29 30 30 32 31 31 30 29 32 31 32 33 31 36 38 39 40

GFSMA_sfc_30mbdewp_279.txt.gz
Dewpoint
62 59 58 57 57 57 57 57 56 56 57 57 57 58 58 58 58 58 56 57 57 58 60 62 64 65 66 67 67 67 67 68 69 68 68 67 66 65 65 65 64 64 64
63 60 60 60 60 60 62 61 61 61 59 58 57 58 58 58 58 58 56 56 59 59 60 62 63 65 65 66 67 67 68 68 68 69 68 68 67 66 66 65 65 64 64
60 61 60 61 61 61 61 61 61 61 61 61 61 62 62 61 61 61 61 60 58 60 60 61 63 64 65 65 65 65 65 66 68 68 68 68 67 67 66 65 65 65 64
57 57 57 57 57 57 56 56 56 59 59 61 61 60 59 59 59 61 62 62 65 64 64 63 61 62 63 64 64 65 66 66 65 66 67 67 67 67 67 66 66 65 65
51 52 52 51 51 50 49 49 50 52 52 52 48 46 47 49 52 53 53 61 59 61 59 57 55 58 55 57 53 58 57 55 59 62 62 63 63 64 66 67 67 66 66
45 45 45 46 44 43 41 42 43 42 43 42 40 36 39 38 41 53 54 50 53 50 47 44 40 42 42 42 43 50 44 57 55 55 56 55 55 57 59 60 62 65 66
41 41 39 38 38 40 40 41 40 36 34 41 38 33 34 38 44 40 38 42 40 39 40 36 36 36 36 38 40 42 49 53 51 51 51 51 51 52 56 57 58 60 61
39 38 39 38 39 37 40 41 41 38 35 40 38 35 29 32 36 36 40 40 38 38 35 36 37 37 38 39 40 48 49 46 46 46 47 47 47 49 51 54 56 55 56
38 40 40 41 39 39 39 40 42 40 37 37 39 36 32 31 35 37 37 35 39 36 36 36 37 37 40 39 40 40 44 43 42 43 44 45 46 45 47 53 52 52 55
38 39 41 41 41 41 42 41 42 41 40 37 38 37 40 38 35 34 34 33 36 35 37 37 37 39 38 38 40 41 42 41 40 41 42 41 42 43 44 45 47 49 51
38 39 40 41 41 41 42 42 42 41 39 38 37 36 36 35 35 34 33 33 32 33 34 35 38 37 37 37 39 39 40 40 40 41 41 40 40 40 41 42 44 46 47
37 39 39 41 41 41 41 41 41 41 41 40 39 37 36 35 34 34 33 32 32 32 34 35 35 36 37 37 36 38 39 39 39 41 40 39 38 38 40 43 44 46 48
36 39 39 40 39 40 40 40 39 38 40 39 39 37 36 35 36 35 34 33 32 32 31 32 34 35 34 36 37 38 38 38 40 39 40 39 39 38 38 40 42 42 44
37 39 39 39 38 37 38 38 37 37 39 38 38 37 35 35 34 34 33 32 32 31 30 30 32 33 34 35 36 37 37 38 39 40 38 39 40 40 40 39 37 36 37
36 38 38 37 36 36 36 35 36 36 37 35 35 36 34 33 34 33 33 32 31 30 29 29 31 32 34 35 35 37 37 38 37 37 39 39 40 39 39 40 39 38 37
36 37 36 36 34 35 35 34 33 35 35 35 34 34 33 33 32 32 32 31 30 30 29 30 30 32 34 34 33 36 36 36 36 36 37 37 37 38 37 38 38 39 39
35 35 34 32 33 33 34 34 32 33 33 34 34 33 33 32 32 31 31 30 29 29 29 30 31 32 33 34 34 35 34 33 33 34 35 36 36 36 37 37 38 38 39
34 34 33 32 32 32 33 33 33 33 32 32 33 32 32 31 31 31 30 29 29 29 29 30 30 31 31 33 33 33 32 31 32 32 33 34 35 35 36 37 38 38 38
33 33 33 32 32 32 31 31 32 32 32 32 33 32 31 31 30 30 30 28 28 28 29 30 29 31 31 32 31 31 31 32 31 31 31 33 34 36 37 36 37 37 38
32 32 32 32 31 29 29 30 31 32 31 31 32 31 31 29 30 29 27 28 27 28 29 29 29 29 30 30 30 30 31 32 31 31 32 33 35 35 35 37 37 37 37
31 31 32 31 28 25 26 29 33 30 29 29 30 30 29 29 31 31 27 27 28 29 29 28 29 29 29 29 28 31 31 32 32 32 33 33 33 33 34 36 37 38 37
31 31 30 30 28 23 29 29 30 32 29 28 29 29 28 28 29 28 28 28 28 28 28 28 30 28 28 29 30 31 32 31 29 32 32 33 34 34 35 36 36 37 38
31 31 30 30 29 26 29 29 29 31 28 29 29 29 27 26 29 27 27 27 26 26 27 27 26 27 28 29 30 31 30 31 31 32 32 32 33 33 33 34 36 37 39
30 30 30 30 29 27 28 28 28 30 28 28 28 29 27 26 27 27 27 26 25 24 25 26 27 28 28 29 30 30 31 32 32 32 32 31 34 32 33 34 36 40 38
30 29 28 29 29 31 27 27 28 26 26 27 27 28 27 26 26 27 26 25 24 24 27 29 29 29 29 28 29 30 30 30 29 30 33 34 32 32 32 34 38 35 37
28 25 27 28 27 31 27 27 27 25 25 26 27 28 28 25 27 27 25 24 23 25 28 29 29 29 29 29 29 31 31 30 30 30 33 33 32 33 30 32 33 35 37

GFSMA_sfc_30mbdewp_282.txt.gz
Dewpoint
65 63 62 62 62 62 64 63 62 62 61 61 61 61 61 61 61 61 60 59 56 57 60 62 63 64 65 66 66 67 67 68 68 68 68 68 68 67 66 66 65 65 65
64 64 63 63 62 63 63 63 63 63 62 63 62 63 62 62 61 61 61 62 62 64 64 64 64 65 66 65 66 66 66 66 66 67 67 68 68 68 67 66 66 65 65
60 60 60 60 59 60 59 59 59 59 61 62 62 62 61 61 62 63 64 63 66 64 64 63 63 63 60 58 55 58 60 59 63 62 61 61 62 62 65 66 66 66 66
56 57 57 55 55 56 52 51 53 55 55 56 53 51 49 52 53 57 61 64 63 64 61 45 43 57 55 50 51 52 52 60 57 57 57 57 56 56 57 59 60 61 64
49 52 50 50 50 47 46 46 46 47 44 46 41 40 41 47 43 49 47 45 45 45 40 40 42 41 46 45 47 43 52 55 53 52 52 51 51 52 53 54 56 58 59
46 48 46 45 45 44 44 45 44 43 44 45 44 40 39 39 43 42 45 40 42 39 40 41 40 41 41 42 45 52 52 49 48 48 48 48 49 49 49 50 51 55 57
44 45 43 42 45 44 45 45 44 42 43 44 41 39 40 41 42 42 41 43 39 38 39 38 41 39 39 43 42 50 48 45 44 44 44 45 46 46 46 46 46 50 55
44 43 44 43 44 44 44 45 46 43 43 44 39 40 35 41 38 42 40 39 39 38 37 40 37 38 42 41 41 46 45 42 42 42 41 42 44 44 45 45 44 46 47
43 44 45 45 44 45 45 45 46 44 43 42 41 40 38 36 38 39 40 42 38 38 39 36 37 39 39 38 40 42 43 42 41 40 40 41 43 42 43 42 43 44 45
42 43 44 44 45 45 45 44 45 44 43 40 41 41 41 41 38 36 37 38 36 35 36 37 39 38 36 38 41 38 43 41 40 39 39 41 40 41 41 41 41 42 44
42 43 44 45 45 45 45 45 44 44 43 42 41 39 38 38 38 36 35 35 35 35 35 37 37 36 38 37 36 37 39 38 41 39 40 39 41 41 40 40 40 41 41
41 42 44 44 44 43 44 43 43 43 43 42 41 39 38 37 36 36 34 34 33 33 34 34 34 36 34 35 34 37 37 39 39 40 40 39 37 38 39 40 40 41 40
41 42 42 42 42 42 42 41 42 42 42 41 39 38 37 36 36 35 34 33 32 32 33 33 33 32 33 33 35 37 37 39 36 40 37 38 38 38 39 39 39 39 40
41 42 42 41 40 40 41 41 41 40 40 40 39 38 36 36 36 35 34 33 31 30 30 30 33 33 33 33 35 36 34 35 38 36 36 37 38 37 38 38 38 37 37
40 41 40 39 39 39 39 39 39 39 38 38 37 37 35 35 35 35 34 32 31 29 29 29 30 31 33 33 33 34 34 35 35 34 36 35 35 37 35 36 36 37 38
40 40 38 37 37 37 37 36 36 37 37 36 36 36 34 34 34 33 34 33 32 31 29 30 30 32 31 32 32 33 33 33 32 33 34 34 34 34 35 36 37 38 38
38 37 35 35 35 36 36 35 36 36 36 36 35 35 34 34 34 33 33 32 31 31 29 29 30 31 31 31 32 33 32 30 31 32 33 33 33 34 35 35 36 36 37
37 36 34 34 34 34 35 35 34 34 34 34 35 34 34 32 33 32 32 30 30 30 29 29 29 30 30 31 31 31 30 30 31 30 33 32 33 34 34 34 34 34 36
36 35 35 34 33 33 32 34 34 33 33 34 34 33 33 31 31 32 30 28 29 30 30 29 29 29 29 30 29 29 29 30 30 31 31 31 32 33 34 34 33 34 36
35 35 34 33 31 30 31 33 33 33 32 33 33 33 32 31 31 31 27 28 28 29 29 28 28 28 27 27 27 27 27 28 29 29 30 31 32 34 34 34 34 33 35
34 34 33 31 28 26 28 30 34 34 31 31 32 31 31 31 32 29 28 28 28 29 27 27 26 26 26 26 26 27 27 28 29 29 30 31 32 33 33 32 32 33 34
34 33 33 31 26 24 30 30 30 32 32 31 30 31 31 32 30 28 28 29 29 27 27 26 25 26 26 27 28 28 29 28 27 29 30 31 32 32 33 31 32 33 34
34 34 33 33 29 27 29 29 29 30 32 31 30 31 27 28 28 28 27 29 28 26 28 26 27 28 28 28 29 29 29 29 29 30 30 30 33 32 34 31 33 34 36
34 34 33 33 30 27 28 28 28 30 30 29 29 30 29 27 26 28 28 27 26 26 26 27 29 30 29 30 30 29 30 30 31 29 30 30 33 32 34 33 33 34 34
33 32 32 32 32 28 27 28 28 29 27 28 31 30 29 25 25 28 28 27 25 25 26 28 30 30 31 30 30 30 28 29 27 28 30 32 32 33 33 32 32 33 33
32 30 30 32 34 29 26 26 27 27 26 28 30 28 28 25 26 28 28 27 24 24 26 29 28 29 29 28 29 29 29 28 28 26 28 30 32 33 31 31 31 32 32

GFSMA_sfc_30mbdewp_288.txt.gz
Dewpoint
62 62 61 62 61 61 60 58 58 59 60 62 58 55 54 57 62 64 54 54 59 58 56 54 52 52 55 52 60 59 58 57 56 55 55 54 54 54 55 55 56 57 57
60 59 56 56 55 53 53 51 51 52 51 50 46 43 46 60 63 55 53 50 51 53 51 48 49 50 51 58 58 55 53 52 52 51 50 50 50 50 51 51 51 51 52
56 53 51 50 48 47 47 45 46 46 44 42 41 42 48 46 48 50 46 45 43 47 47 48 48 49 51 53 52 51 50 49 49 49 49 48 47 47 47 48 48 49 49
50 48 47 46 45 45 45 44 45 42 41 39 42 41 44 42 40 39 39 39 40 40 40 46 47 47 46 49 48 48 48 47 47 47 45 44 44 44 45 46 46 46 47
46 45 45 45 44 44 44 44 43 42 38 39 41 43 43 41 39 38 38 38 39 38 38 41 44 43 43 45 46 47 47 45 43 42 42 43 43 44 44 44 44 45 45
44 45 45 44 44 44 44 44 43 43 42 41 42 43 43 41 39 39 38 37 36 38 38 39 40 38 42 44 40 43 41 40 41 41 42 43 43 42 42 43 43 43 44
44 44 44 44 45 44 45 45 44 41 41 42 40 41 41 41 40 38 37 36 36 36 38 36 38 38 36 36 36 37 39 39 40 41 40 39 40 40 41 41 41 41 42
45 45 45 45 44 43 43 43 42 40 40 42 39 39 38 39 40 37 35 33 36 35 36 35 37 32 36 33 35 36 38 37 40 37 38 38 38 39 40 40 41 41 41
45 45 45 45 44 44 43 43 42 40 38 40 41 38 34 32 39 40 35 34 34 34 36 34 37 32 35 34 34 36 35 36 37 36 37 36 37 38 39 39 39 39 39
46 45 45 44 44 44 43 43 43 42 40 38 39 38 37 38 34 28 36 32 34 33 34 33 36 33 34 33 34 34 37 38 35 36 35 36 37 37 38 38 37 38 38
45 45 44 44 43 43 43 42 40 40 40 38 37 38 35 34 35 31 22 26 31 32 33 32 33 33 34 32 34 33 37 38 35 36 34 35 36 36 37 37 36 37 37
43 43 43 42 42 43 42 40 39 38 38 38 37 36 35 32 32 31 30 31 31 29 33 31 31 33 29 32 31 33 34 35 36 32 33 34 34 35 35 35 36 36 37
41 41 42 41 42 42 40 40 39 38 37 36 36 36 35 34 34 33 32 31 30 31 31 32 28 31 29 30 32 32 32 34 33 33 32 33 33 34 34 35 35 35 37
40 40 41 41 41 40 40 39 38 37 36 35 34 35 35 35 34 33 32 30 25 29 30 29 28 30 29 30 31 31 30 29 33 31 31 31 32 33 33 34 33 35 36
40 39 40 40 39 39 39 38 37 36 35 34 34 34 33 34 33 33 32 31 30 23 24 29 24 28 30 30 30 29 28 29 30 31 31 31 31 32 33 33 33 34 34
39 39 39 38 38 38 38 37 37 36 35 35 35 33 32 32 31 32 30 30 30 29 25 28 26 29 30 29 27 28 29 29 29 30 31 31 32 32 31 32 33 34 34
39 38 38 37 37 37 37 37 36 36 36 34 33 33 31 32 29 29 29 29 28 29 27 27 28 29 26 26 28 29 29 28 28 29 30 31 32 32 32 33 34 34 35
38 37 37 37 37 37 37 36 35 35 35 32 31 32 30 30 27 27 28 27 28 29 28 26 27 25 25 27 28 29 28 28 28 28 30 31 30 31 32 32 33 34 34
37 37 37 36 36 36 36 36 36 35 34 34 32 31 30 27 23 26 27 28 28 28 29 28 24 25 26 27 28 27 27 27 27 28 28 28 29 30 30 31 32 32 33
36 36 35 35 35 35 36 35 35 34 34 34 33 32 30 26 25 27 28 28 28 27 27 25 24 25 26 27 27 26 26 26 26 26 26 28 28 28 29 30 30 31 32
35 34 32 31 32 33 34 34 34 34 34 33 33 33 31 28 29 30 29 29 26 25 25 24 24 25 25 26 26 27 26 25 25 26 26 26 26 27 27 28 28 30 32
34 31 28 27 28 30 32 33 33 33 32 32 31 30 28 26 28 29 29 29 27 25 25 25 24 24 24 26 27 27 26 24 22 24 25 25 26 25 26 26 28 30 32
31 28 25 25 27 30 31 31 32 32 32 30 30 28 23 25 27 27 27 27 27 26 27 26 25 25 27 26 27 26 25 24 23 25 24 24 25 25 26 26 29 30 30
30 27 24 25 27 29 30 30 31 32 32 30 29 25 23 25 28 27 25 24 24 23 24 25 26 26 25 25 26 25 25 24 23 23 24 23 24 25 26 28 28 29 30
30 29 25 25 25 27 29 29 31 32 31 29 27 25 24 26 27 28 24 22 21 19 20 22 23 24 23 23 23 24 22 23 21 22 24 25 24 26 26 25 27 28 29
32 30 25 24 25 26 29 29 31 32 29 29 29 26 26 26 27 28 22 22 17 18 19 20 20 20 21 22 20 22 23 22 22 21 23 24 24 25 23 25 27 28 29